Hourly Weather Bartkowa Posadowa

Today, 18 April, Sunday

Time Temperature Precipitation Wind Pressure Humidity
00:00 +2°C° 0 mm 0 mps 732 mmHg 99%
01:00 +3°C° 0 mm 0 mps 732 mmHg 98%
02:00 +3°C° 0 mm 0 mps 732 mmHg 98%
03:00 +3°C° 0 mm 0 mps 732 mmHg 98%
04:00 +3°C° 0 mm 0 mps 732 mmHg 98%
05:00 +3°C° 0 mm 0 mps 732 mmHg 96%
06:00 +3°C° 0 mm 0 mps 732 mmHg 94%
07:00 +4°C° 0 mm 1 mps 732 mmHg 91%
08:00 +5°C° 0 mm 1 mps 732 mmHg 89%
09:00 +6°C° 0 mm 1 mps 732 mmHg 86%
10:00 +6°C° 0 mm 1 mps 732 mmHg 83%
11:00 +6°C° 0 mm 2 mps 732 mmHg 80%
12:00 +7°C° 0 mm 2 mps 732 mmHg 76%
13:00 +8°C° 0 mm 2 mps 732 mmHg 73%
14:00 +8°C° 0 mm 2 mps 732 mmHg 75%
15:00 +9°C° 0 mm 1 mps 732 mmHg 77%
16:00 +9°C° 0 mm 1 mps 732 mmHg 78%
17:00 +8°C° 0 mm 1 mps 732 mmHg 81%
18:00 +8°C° 0 mm 1 mps 732 mmHg 83%
19:00 +7°C° 0 mm 1 mps 732 mmHg 85%
20:00 +7°C° 0 mm 1 mps 732 mmHg 85%
21:00 +6°C° 0 mm 0 mps 732 mmHg 85%
22:00 +6°C° 0 mm 0 mps 732 mmHg 85%
23:00 +5°C° 0 mm 0 mps 732 mmHg 86%

Tomorrow, 19 April, Monday

Time Temperature Precipitation Wind Pressure Humidity
00:00 +5°C° 0 mm 0 mps 731 mmHg 87%
01:00 +5°C° 0 mm 0 mps 731 mmHg 89%
02:00 +4°C° 0 mm 0 mps 731 mmHg 89%
03:00 +4°C° 0 mm 0 mps 731 mmHg 90%
04:00 +4°C° 0 mm 0 mps 731 mmHg 91%
05:00 +5°C° 0.2 mm 0 mps 731 mmHg 90%
06:00 +6°C° 0.2 mm 1 mps 731 mmHg 88%
07:00 +7°C° 0.2 mm 1 mps 731 mmHg 87%
08:00 +8°C° 0.3 mm 1 mps 731 mmHg 85%
09:00 +8°C° 0.3 mm 1 mps 730 mmHg 83%
10:00 +9°C° 0.3 mm 1 mps 730 mmHg 82%
11:00 +8°C° 0.1 mm 2 mps 730 mmHg 79%
12:00 +9°C° 0.1 mm 2 mps 730 mmHg 77%
13:00 +10°C° 0.1 mm 2 mps 730 mmHg 75%
14:00 +9°C° 0.2 mm 2 mps 730 mmHg 77%
15:00 +9°C° 0.2 mm 2 mps 730 mmHg 80%
16:00 +9°C° 0.2 mm 2 mps 730 mmHg 82%
17:00 +8°C° 0.1 mm 2 mps 730 mmHg 85%
18:00 +9°C° 0.1 mm 1 mps 729 mmHg 88%
19:00 +8°C° 0.1 mm 1 mps 729 mmHg 91%
20:00 +8°C° 0.1 mm 1 mps 729 mmHg 92%
21:00 +7°C° 0.1 mm 1 mps 729 mmHg 93%
22:00 +7°C° 0.1 mm 1 mps 729 mmHg 93%
23:00 +7°C° 0 mm 1 mps 729 mmHg 94%

Day after tomorrow, 20 April, Tuesday

Time Temperature Precipitation Wind Pressure Humidity
00:00 +6°C° 0 mm 1 mps 729 mmHg 95%
01:00 +6°C° 0 mm 1 mps 729 mmHg 95%
02:00 +6°C° 0 mm 1 mps 729 mmHg 96%
03:00 +6°C° 0 mm 1 mps 728 mmHg 96%
04:00 +6°C° 0 mm 1 mps 728 mmHg 96%
05:00 +6°C° 0.1 mm 1 mps 728 mmHg 96%
06:00 +6°C° 0.1 mm 1 mps 729 mmHg 96%
07:00 +7°C° 0.1 mm 1 mps 729 mmHg 95%
08:00 +7°C° 0.3 mm 1 mps 729 mmHg 94%
09:00 +7°C° 0.3 mm 1 mps 729 mmHg 93%
10:00 +7°C° 0.3 mm 2 mps 729 mmHg 92%
11:00 +8°C° 0.1 mm 1 mps 729 mmHg 90%
12:00 +8°C° 0.1 mm 1 mps 729 mmHg 87%
13:00 +9°C° 0.1 mm 1 mps 729 mmHg 85%
14:00 +9°C° 0.1 mm 1 mps 728 mmHg 82%
15:00 +10°C° 0.1 mm 1 mps 728 mmHg 78%
16:00 +11°C° 0.1 mm 1 mps 728 mmHg 74%
17:00 +10°C° 0.1 mm 1 mps 728 mmHg 78%
18:00 +9°C° 0.1 mm 1 mps 728 mmHg 81%
19:00 +7°C° 0.1 mm 0 mps 728 mmHg 84%
20:00 +8°C° 0 mm 1 mps 728 mmHg 85%
21:00 +8°C° 0 mm 1 mps 729 mmHg 85%
22:00 +7°C° 0 mm 1 mps 729 mmHg 86%
23:00 +7°C° 0 mm 1 mps 728 mmHg 86%

21 April, Wednesday

Time Temperature Precipitation Wind Pressure Humidity
00:00 +7°C° 0 mm 1 mps 728 mmHg 87%
01:00 +7°C° 0 mm 1 mps 728 mmHg 87%
02:00 +7°C° 0 mm 1 mps 728 mmHg 87%
03:00 +7°C° 0 mm 1 mps 728 mmHg 87%
04:00 +7°C° 0 mm 1 mps 728 mmHg 87%
05:00 +7°C° 0 mm 1 mps 729 mmHg 85%
06:00 +8°C° 0 mm 1 mps 729 mmHg 84%
07:00 +8°C° 0 mm 1 mps 729 mmHg 82%
08:00 +9°C° 0.1 mm 1 mps 729 mmHg 76%
09:00 +11°C° 0.1 mm 1 mps 729 mmHg 71%
10:00 +12°C° 0.1 mm 1 mps 729 mmHg 65%
11:00 +12°C° 0.3 mm 2 mps 729 mmHg 63%
12:00 +13°C° 0.3 mm 2 mps 728 mmHg 61%
13:00 +14°C° 0.3 mm 2 mps 728 mmHg 58%
14:00 +14°C° 0.2 mm 2 mps 728 mmHg 58%
15:00 +14°C° 0.2 mm 2 mps 728 mmHg 57%
16:00 +14°C° 0.2 mm 1 mps 728 mmHg 56%
17:00 +12°C° 0.1 mm 1 mps 728 mmHg 63%
18:00 +11°C° 0.1 mm 1 mps 728 mmHg 70%
19:00 +9°C° 0.1 mm 1 mps 728 mmHg 77%
20:00 +7°C° 0 mm 2 mps 728 mmHg 79%
21:00 +7°C° 0 mm 2 mps 728 mmHg 82%
22:00 +7°C° 0 mm 2 mps 728 mmHg 84%
23:00 +7°C° 0 mm 2 mps 729 mmHg 84%

22 April, Thursday

Time Temperature Precipitation Wind Pressure Humidity
00:00 +7°C° 0 mm 2 mps 729 mmHg 83%
01:00 +7°C° 0 mm 2 mps 729 mmHg 83%
02:00 +7°C° 0.1 mm 2 mps 729 mmHg 85%
03:00 +7°C° 0.1 mm 2 mps 729 mmHg 87%
04:00 +7°C° 0.1 mm 2 mps 729 mmHg 88%
05:00 +7°C° 0.1 mm 2 mps 729 mmHg 86%
06:00 +8°C° 0.1 mm 2 mps 729 mmHg 83%
07:00 +10°C° 0.1 mm 1 mps 730 mmHg 80%
08:00 +10°C° 0.3 mm 2 mps 730 mmHg 75%
09:00 +12°C° 0.3 mm 2 mps 730 mmHg 70%
10:00 +12°C° 0.3 mm 3 mps 730 mmHg 64%
11:00 +12°C° 0.6 mm 3 mps 730 mmHg 67%
12:00 +12°C° 0.6 mm 3 mps 730 mmHg 69%
13:00 +11°C° 0.6 mm 3 mps 730 mmHg 71%
14:00 +9°C° 1.3 mm 3 mps 730 mmHg 78%
15:00 +7°C° 1.3 mm 3 mps 730 mmHg 86%
16:00 +4°C° 1.3 mm 3 mps 731 mmHg 93%
17:00 +4°C° 0.4 mm 3 mps 731 mmHg 93%
18:00 +4°C° 0.4 mm 2 mps 732 mmHg 92%
19:00 +4°C° 0.4 mm 2 mps 732 mmHg 92%
20:00 +4°C° 0 mm 2 mps 732 mmHg 92%
21:00 +3°C° 0 mm 2 mps 732 mmHg 92%
22:00 +3°C° 0 mm 2 mps 732 mmHg 92%
23:00 +3°C° 0 mm 2 mps 732 mmHg 91%

23 April, Friday

Time Temperature Precipitation Wind Pressure Humidity
00:00 +2°C° 0 mm 2 mps 733 mmHg 91%
01:00 +2°C° 0 mm 2 mps 733 mmHg 91%
02:00 +1°C° 0 mm 3 mps 733 mmHg 90%
03:00 +1°C° 0 mm 3 mps 733 mmHg 89%
04:00 0°C° 0 mm 4 mps 733 mmHg 87%
05:00 0°C° 0 mm 4 mps 734 mmHg 87%
06:00 0°C° 0 mm 4 mps 734 mmHg 87%
07:00 +1°C° 0 mm 4 mps 734 mmHg 87%
08:00 +1°C° 0.2 mm 4 mps 734 mmHg 85%
09:00 +2°C° 0.2 mm 5 mps 735 mmHg 82%
10:00 +3°C° 0.2 mm 5 mps 735 mmHg 80%
11:00 +3°C° 0.3 mm 5 mps 735 mmHg 80%
12:00 +3°C° 0.3 mm 6 mps 735 mmHg 81%
13:00 +3°C° 0.3 mm 6 mps 736 mmHg 82%
14:00 +3°C° 0.3 mm 5 mps 736 mmHg 81%
15:00 +5°C° 0.3 mm 5 mps 736 mmHg 80%
16:00 +5°C° 0.3 mm 4 mps 736 mmHg 79%
17:00 +4°C° 0.3 mm 4 mps 736 mmHg 83%
18:00 +2°C° 0.3 mm 3 mps 737 mmHg 86%
19:00 +2°C° 0.3 mm 2 mps 737 mmHg 90%
20:00 +2°C° 0.1 mm 2 mps 737 mmHg 91%
21:00 +2°C° 0.1 mm 2 mps 737 mmHg 92%
22:00 +2°C° 0.1 mm 2 mps 738 mmHg 93%
23:00 +1°C° 0.1 mm 2 mps 738 mmHg 94%
Show more